CAPE
13 17 13 5 0 0 0 0 0 0 0 0 0 0 0 8 1 1 0 0 0 0 0 0 0 0 0 0 0 0 0 0 0 0 0 0 0 0 0 0 0 0 0 0 0
10 4 4 13 10 0 0 0 0 0 0 0 0 0 0 8 3 4 0 0 0 0 0 0 0 0 0 0 0 0 0 0 0 0 0 0 0 0 0 0 0 0 0 0 0
13 13 0 2 8 12 3 0 0 0 0 0 0 0 5 11 0 0 0 0 0 0 0 0 0 0 0 0 0 0 0 0 0 0 0 0 0 0 0 0 0 0 0 0 0
3 7 12 0 0 10 12 1 0 0 0 0 0 0 16 17 0 0 0 0 0 0 0 0 0 0 0 0 0 0 0 0 0 0 0 0 0 0 0 0 0 0 0 0 0
14 0 0 2 0 5 28 7 2 0 0 0 0 0 39 10 0 0 0 0 0 0 0 0 0 0 0 0 0 0 0 0 0 0 0 0 0 0 0 0 0 0 0 0 0
21 18 0 0 1 2 25 19 0 5 1 0 0 19 22 0 0 3 0 0 0 5 0 0 0 0 0 0 0 0 0 0 0 0 0 0 0 0 0 0 0 0 0 0 0
28 12 12 0 0 1 3 21 7 7 4 0 0 10 0 0 0 0 18 51 20 16 15 0 0 0 0 0 0 0 0 0 0 0 0 0 0 0 0 0 0 0 0 0 0
22 22 13 14 0 0 0 17 19 3 8 2 0 17 6 0 0 0 1 19 34 35 22 6 12 14 6 0 0 0 0 0 0 0 0 0 0 0 0 0 0 0 0 0 0
58 26 0 1 9 1 0 6 43 11 18 5 1 6 2 0 0 0 0 17 27 23 28 11 16 22 21 10 4 3 0 0 0 0 0 0 0 0 0 0 0 0 0 0 0
56 53 11 0 10 12 11 12 63 73 37 10 6 7 0 0 0 0 0 40 21 9 29 32 23 4 15 17 0 0 0 0 0 0 0 0 0 0 0 0 0 0 0 0 0
3 54 30 1 0 9 11 37 111 56 13 0 0 0 0 0 0 0 0 47 19 21 0 21 0 0 0 8 13 4 0 0 0 0 0 0 0 0 0 0 0 0 0 0 0
13 55 28 2 29 11 36 48 25 8 9 0 0 0 0 0 0 0 18 34 34 6 20 9 1 0 3 1 0 8 8 8 20 28 20 4 0 0 0 0 0 0 0 0 0
30 3 38 24 1 15 4 3 9 1 21 5 0 0 0 0 0 0 0 28 3 3 5 2 0 1 1 2 8 3 0 10 0 0 0 0 0 0 0 0 0 0 0 0 0
21 25 74 39 41 7 12 9 1 0 24 2 5 1 0 0 0 0 12 7 20 2 7 6 1 2 2 1 1 0 0 0 1 9 2 0 0 0 0 0 0 0 0 0 0
57 22 9 143 3 0 0 20 5 1 20 2 1 3 0 0 0 0 1 33 0 0 7 0 0 0 0 0 0 0 0 0 23 13 11 0 10 0 0 0 0 0 0 0 0
28 38 5 46 16 0 0 24 21 56 34 0 6 4 0 0 0 0 14 24 0 8 0 0 0 0 0 0 0 0 17 14 15 9 4 0 2 0 0 0 0 0 0 0 0
36 57 4 14 7 19 31 72 57 45 0 2 4 1 0 1 0 2 0 7 2 9 4 1 1 0 0 4 15 22 18 1 1 2 0 0 0 0 0 0 0 0 0 0 0
61 45 13 54 5 65 57 40 14 0 0 0 0 2 1 0 1 4 0 5 4 0 0 0 0 0 0 0 0 0 0 2 0 0 0 0 0 0 0 0 0 0 0 0 0
145 44 6 21 17 65 58 34 2 0 0 0 6 6 3 5 1 15 8 1 1 0 0 0 0 0 0 0 0 0 0 0 0 0 0 0 0 0 0 0 0 0 0 0 0
53 11 12 13 18 60 76 26 0 0 0 0 0 7 0 4 4 17 20 0 3 0 0 0 0 0 0 0 0 0 0 0 4 1 0 0 0 0 0 0 0 0 0 0 0
4 0 2 15 9 3 0 4 0 0 0 25 0 0 2 4 4 3 0 0 0 0 0 0 0 0 0 0 0 0 5 13 3 5 0 0 0 0 0 0 0 0 0 0 0
3 0 16 0 0 0 0 0 0 0 26 26 0 0 0 0 0 2 0 0 0 0 0 0 0 0 0 0 0 0 0 6 29 0 0 0 0 0 0 0 0 0 0 0 0
0 0 11 0 0 0 0 0 0 0 21 9 19 1 0 0 3 0 0 0 0 0 0 0 1 0 0 0 0 0 0 0 5 1 0 1 0 0 0 0 0 0 0 0 0
0 0 1 1 0 0 0 0 0 0 25 46 8 2 4 2 0 0 0 0 0 0 0 1 0 0 0 0 0 0 0 0 3 5 0 0 0 0 0 0 0 0 0 0 0
0 0 0 0 0 0 0 0 0 1 10 27 0 21 17 10 5 0 0 0 0 0 4 0 0 0 0 0 0 0 0 0 0 0 0 0 0 0 0 0 0 0 0 0 0
0 0 0 0 0 0 0 0 0 0 36 34 0 0 0 32 3 0 0 0 0 0 0 0 0 0 0 0 0 0 0 0 0 0 0 0 0 0 0 0 0 0 0 0 0
0 0 0 2 0 0 0 0 0 0 11 15 3 0 0 0 0 0 0 0 0 0 0 0 0 0 0 0 0 0 0 0 0 0 0 0 0 0 0 0 0 0 0 0 0
CIN
-12 -5 -9 -9 -0 -0 -0 -0 -0 -0 -0 -0 -0 -0 -0 -4 -3 -1 -0 -0 -0 -0 -0 -0 -0 -0 -0 -0 -0 -0 -0 -0 -0 -0 -0 -0 -0 -0 -0 -0 -0 -0 -0 -0 -0
-20 -41 -30 -8 -5 -0 -0 -0 -0 -0 -0 -0 -0 -0 -0 -1 -0 -0 -0 -0 -0 -0 -0 -0 -0 -0 -0 -0 -0 -0 -0 -0 -0 -0 -0 -0 -0 -0 -0 -0 -0 -0 -0 -0 -0
-11 -19 -13 -36 -13 -12 -17 -0 -0 -0 -0 -0 -0 -0 -4 -3 -0 -0 -0 -0 -0 -0 -0 -0 -0 -0 -0 -0 -0 -0 -0 -0 -0 -0 -0 -0 -0 -0 -0 -0 -0 -0 -0 -0 -0
-16 -15 -21 -0 -0 -13 -20 -21 -0 -0 -0 -0 -0 -0 -6 -3 -0 -0 -0 -0 -0 -0 -0 -0 -0 -0 -0 -0 -0 -0 -0 -0 -0 -0 -0 -0 -0 -0 -0 -0 -0 -0 -0 -0 -0
-6 -0 -0 -13 -0 -15 -9 -23 -32 -5 -0 -0 -0 -0 -1 -0 -0 -0 -0 -0 -0 -0 -0 -0 -0 -0 -0 -0 -0 -0 -0 -0 -0 -0 -0 -0 -0 -0 -0 -0 -0 -0 -0 -0 -0
-5 -17 -0 -0 -5 -37 -7 -11 -8 -27 -18 -0 -0 -5 -2 -0 -0 -18 -0 -0 -0 -1 -0 -0 -0 -0 -0 -0 -0 -0 -0 -0 -0 -0 -0 -0 -0 -0 -0 -0 -0 -0 -0 -0 -0
-4 -11 -18 -1 -0 -13 -32 -8 -21 -21 -36 -0 -0 -2 -0 -0 -0 -0 -21 -8 -14 -10 -3 -0 -0 -0 -0 -0 -0 -0 -0 -0 -0 -0 -0 -0 -0 -0 -0 -0 -0 -0 -0 -0 -0
-4 -7 -13 -27 -4 -0 -0 -18 -8 -12 -21 -21 -0 -2 -0 -0 -0 -0 -7 -10 -17 -15 -5 -16 -27 -12 -9 -4 -0 -0 -0 -0 -0 -0 -0 -0 -0 -0 -0 -0 -0 -0 -0 -0 -0
-0 -5 -12 -29 -31 -7 -0 -26 -12 -18 -13 -6 -1 -2 -0 -0 -0 -0 -0 -6 -11 -17 -16 -9 -8 -5 -14 -4 -1 -7 -0 -0 -0 -0 -0 -0 -0 -0 -0 -0 -0 -0 -0 -0 -0
-1 -1 -15 -0 -35 -32 -45 -33 -7 -4 -10 -3 -5 -0 -0 -0 -0 -0 -0 -13 -5 -5 -2 -2 -2 -0 -2 -2 -0 -0 -0 -1 -1 -0 -0 -0 -0 -0 -0 -0 -0 -0 -0 -0 -0
-11 -2 -10 -24 -7 -30 -22 -9 -0 -3 -2 -0 -0 -0 -0 -0 -0 -0 -0 -5 -7 -2 -0 -0 -0 -0 -0 -4 -6 -3 -7 -0 -0 -0 -0 -0 -0 -0 -0 -0 -0 -0 -0 -0 -0
-23 -0 -10 -19 -24 -23 -18 -0 -1 -10 -0 -3 -50 -0 -0 -0 -0 -0 -26 -4 -0 -0 -1 -1 -1 -0 -5 -1 -0 -2 -0 -3 -5 -12 -5 -14 -0 -0 -0 -0 -0 -0 -0 -0 -0
-22 -1 -3 -15 -18 -23 -12 -0 -16 -29 -5 -10 -0 -0 -0 -0 -0 -0 -2 -9 -1 -1 -1 -1 -1 -0 -5 -2 -1 -1 -0 -2 -1 -0 -0 -0 -0 -0 -0 -0 -0 -0 -0 -0 -0
-14 -3 -0 -6 -2 -17 -4 -18 -21 -0 -1 -14 -18 -5 -0 -0 -0 -0 -10 -4 -1 -0 -2 -2 -1 -4 -0 -0 -1 -0 -0 -0 -5 -1 -1 -0 -0 -0 -0 -0 -0 -0 -0 -0 -0
-3 -44 -19 -0 -4 -0 -0 -20 -41 -17 -1 -25 -0 -1 -0 -0 -0 -0 -2 -5 -0 -0 -2 -0 -0 -0 -0 -0 -0 -0 -0 -1 -4 -2 -1 -0 -0 -0 -0 -0 -0 -0 -0 -0 -0
-3 -15 -12 -1 -4 -0 -0 -22 -13 -6 -6 -0 -3 -3 -0 -3 -0 -0 -8 -13 -5 -4 -0 -0 -0 -0 -0 -0 -0 -0 -7 -8 -8 -3 -1 -0 -0 -0 -0 -0 -0 -0 -0 -0 -0
-6 -6 -14 -3 -9 -10 -16 -0 -1 -3 -0 -0 -0 -1 -0 -1 -5 -6 -0 -0 -0 -0 -0 -0 -1 -0 -0 -2 -10 -7 -4 -0 -2 -0 -0 -0 -4 -0 -0 -0 -0 -0 -0 -0 -0
-1 -12 -8 -22 -5 -10 -6 -12 -32 -0 -0 -0 -2 -0 -0 -0 -2 -7 -0 -0 -1 -0 -0 -0 -0 -0 -0 -0 -0 -0 -0 -3 -0 -0 -0 -0 -0 -0 -0 -0 -0 -0 -0 -0 -0
-0 -0 -5 -0 -7 -9 -0 -10 -20 -0 -0 -0 -1 -2 -0 -1 -1 -0 -1 -0 -0 -0 -0 -0 -0 -0 -0 -0 -0 -0 -0 -0 -0 -0 -0 -0 -0 -0 -0 -0 -0 -0 -0 -0 -0
-3 -4 -0 -0 -11 -4 -1 -2 -39 -0 -26 -0 -1 -1 -0 -0 -0 -0 -0 -0 -1 -0 -0 -0 -0 -0 -0 -0 -0 -0 -0 -0 -4 -0 -1 -0 -0 -0 -0 -0 -0 -0 -0 -0 -0
-0 -3 -0 -2 -6 -0 -0 -39 -0 -0 -12 -26 -0 -1 -1 -0 -10 -2 -1 -0 -0 -1 -0 -0 -0 -0 -0 -0 -0 -3 -2 -4 -5 -11 -1 -0 -0 -0 -0 -0 -0 -0 -0 -0 -0
-0 -0 -0 -0 -0 -0 -0 -0 -0 -23 -47 -35 -4 -0 -0 -0 -0 -8 -0 -0 -0 -0 -0 -0 -0 -0 -0 -0 -0 -0 -0 -28 -4 -0 -0 -0 -0 -0 -0 -0 -0 -0 -0 -0 -0
-0 -0 -0 -0 -0 -0 -0 -0 -0 -11 -34 -37 -48 -5 -0 -0 -0 -0 -0 -0 -0 -0 -0 -0 -4 -0 -0 -0 -0 -0 -0 -0 -9 -4 -0 -1 -0 -0 -0 -0 -0 -0 -0 -0 -0
-0 -0 -0 -0 -0 -0 -0 -0 -0 -0 -72 -84 -64 -45 -30 -19 -0 -0 -0 -0 -0 -0 -13 -27 -0 -0 -0 -0 -0 -0 -0 -0 -14 -14 -0 -0 -0 -0 -0 -0 -0 -0 -0 -0 -0
-0 -0 -0 -0 -0 -0 -0 -0 -0 -22 -111 -98 -31 -38 -27 -47 -76 -0 -0 -0 -0 -0 -33 -0 -0 -0 -0 -0 -0 -0 -0 -0 -0 -0 -0 -0 -0 -0 -0 -0 -0 -0 -0 -0 -0
-0 -0 -0 -0 -0 -0 -0 -0 -0 -0 -160 -116 -0 -0 -11 -10 -86 -0 -0 -0 -0 -0 -0 -0 -0 -0 -0 -0 -0 -0 -0 -0 -0 -0 -0 -0 -0 -0 -0 -0 -0 -0 -0 -0 -0
-0 -0 -0 -0 -0 -0 -0 -0 -0 -0 -160 -158 -44 -0 -0 -0 -0 -21 -0 -0 -0 -0 -0 -0 -0 -0 -0 -0 -0 -0 -0 -0 -0 -0 -0 -0 -0 -0 -0 -0 -0 -0 -0 -0 -0
Wind_Speed
30 32 31 30 30 29 29 28 27 28 28 28 27 27 27 26 26 26 28 23 23 24 24 24 21 22 19 19 19 16 19 18 17 17 16 19 18 17 16 15 15 15 15 15 12
32 30 29 31 29 29 29 28 27 27 27 28 28 26 25 26 28 33 28 28 26 24 22 22 23 22 21 21 19 19 21 20 17 15 17 19 19 18 17 18 16 16 17 16 10
35 33 31 30 30 29 29 27 26 26 26 26 27 26 24 23 31 34 30 30 28 23 23 21 22 21 23 22 22 21 23 20 18 18 20 23 22 19 19 19 17 17 18 13 9
36 34 34 32 31 30 29 27 26 25 25 25 25 25 23 23 37 23 27 27 23 20 20 20 21 24 25 25 23 27 25 22 20 19 23 26 22 23 19 18 16 16 19 13 8
38 36 34 32 32 29 29 26 24 24 24 23 23 23 24 32 33 23 24 20 19 20 21 21 24 25 28 26 26 28 27 26 25 25 25 24 27 28 23 21 20 23 19 15 10
38 37 33 33 30 30 27 26 24 23 22 22 21 21 29 40 26 24 19 15 16 20 23 22 23 22 27 29 28 26 29 30 28 27 27 30 31 26 25 23 23 25 25 22 15
38 38 34 32 33 31 28 26 25 23 21 20 20 23 32 37 20 23 20 19 17 19 23 22 21 23 25 28 27 28 35 33 30 28 30 29 39 32 29 29 31 32 34 29 22
38 35 34 32 32 33 30 25 24 22 21 19 19 24 36 26 30 25 22 21 18 19 21 19 19 22 24 23 26 29 32 39 32 31 29 28 47 30 30 34 37 37 35 37 33
40 37 35 33 32 33 31 28 24 22 19 18 23 27 36 24 30 28 22 22 18 18 17 16 19 27 26 31 35 32 39 36 35 28 29 29 41 29 29 36 42 42 40 40 42
42 39 36 34 32 32 31 28 25 21 19 19 24 30 34 33 26 26 22 20 22 21 23 24 25 31 33 33 43 40 40 38 39 32 34 41 50 42 39 40 42 43 44 42 40
40 39 37 35 32 29 26 25 29 28 31 34 31 32 25 23 19 25 22 20 21 26 33 28 35 40 35 35 36 37 39 41 36 32 36 41 48 46 41 44 47 46 46 45 42
40 39 37 33 32 31 28 34 35 28 36 32 30 29 25 19 23 27 20 27 29 34 30 33 44 34 31 33 36 38 42 42 36 31 37 45 56 50 43 44 46 47 45 44 42
43 38 37 34 31 31 35 38 26 19 34 39 31 34 26 24 27 27 26 27 32 35 35 39 34 32 32 34 37 39 42 39 43 38 39 46 65 52 46 42 39 40 40 40 41
45 39 38 35 32 34 39 32 27 23 43 41 41 35 29 26 35 24 24 27 30 37 34 40 39 33 34 40 35 45 36 37 39 39 47 32 63 45 44 46 41 40 41 42 43
48 44 39 40 33 40 35 27 24 24 58 34 37 24 28 33 27 29 22 27 32 31 32 39 35 37 39 37 30 39 30 32 35 39 43 47 50 51 40 51 49 43 38 37 39
48 45 42 41 38 37 28 26 26 45 58 35 28 36 35 38 33 23 25 24 26 30 34 38 29 32 36 31 29 29 33 35 35 37 52 50 43 68 53 48 45 36 39 40 41
49 48 44 44 44 31 31 32 49 60 31 35 39 35 40 42 36 30 31 33 35 37 42 37 40 31 28 33 29 30 33 45 48 48 56 39 42 53 48 44 44 43 41 38 33
46 47 50 43 35 32 36 45 58 48 42 31 32 36 41 37 41 37 36 39 36 34 37 42 45 37 31 36 35 34 35 43 52 52 52 37 48 49 41 39 37 34 34 31 32
42 46 50 46 36 36 43 59 60 45 38 37 33 39 40 38 37 39 41 43 39 35 39 39 43 27 27 28 26 32 39 35 45 44 51 45 45 45 42 43 39 34 29 29 31
36 44 51 39 36 39 50 55 41 35 32 31 43 41 45 42 39 40 40 40 39 36 30 32 40 33 26 24 26 30 22 33 33 49 53 44 43 43 33 29 28 29 30 31 32
32 36 40 39 36 40 54 45 41 29 30 35 31 32 34 35 35 39 37 32 35 31 30 29 33 30 22 30 32 29 32 29 28 33 44 48 45 33 38 34 27 26 29 30 32
38 31 37 39 41 38 47 45 27 38 32 30 35 34 37 35 37 37 38 31 24 26 33 28 28 38 33 26 28 30 32 30 36 35 33 39 45 25 22 21 25 28 29 27 31
30 22 30 33 39 40 23 32 34 33 35 34 31 31 33 36 36 36 38 30 21 21 25 28 32 35 35 33 28 31 30 30 29 29 38 38 40 21 17 25 31 31 30 32 34
27 27 28 35 25 36 38 30 32 28 32 33 32 28 27 30 32 31 34 30 27 26 23 20 33 37 42 35 28 33 31 29 30 35 36 33 34 28 34 36 31 30 31 33 33
22 31 23 34 32 29 30 33 28 32 32 31 36 33 35 35 33 33 26 26 27 28 26 22 32 33 35 31 27 30 30 27 28 29 31 33 29 30 27 27 28 30 29 31 34
21 24 20 23 24 25 29 34 36 32 30 39 42 38 34 37 38 35 26 27 26 27 26 26 32 30 33 30 29 32 31 28 29 31 31 33 34 26 26 25 27 27 29 31 33
18 17 16 20 24 25 27 25 31 27 30 33 39 41 42 44 37 39 35 33 31 32 33 30 29 26 33 27 29 40 33 30 29 27 26 31 30 24 27 28 28 28 28 30 33
Wind_Direction
260 258 257 257 257 259 259 260 260 260 260 261 264 267 268 270 273 273 270 275 277 280 284 290 298 301 307 301 301 306 294 295 300 304 313 324 326 345 355 355 4 8 7 5 22
258 260 260 257 258 257 259 260 261 261 261 261 263 266 269 271 271 268 268 272 275 278 285 291 292 298 294 294 296 290 287 292 302 307 310 318 324 330 337 337 346 353 0 7 50
256 257 258 259 257 257 257 260 260 261 262 261 261 264 268 272 272 269 269 266 269 276 281 289 291 293 286 289 287 288 284 291 299 303 305 305 310 323 327 325 336 342 347 7 31
254 255 256 256 258 256 257 258 260 261 263 263 262 262 265 266 261 277 280 264 264 272 278 283 285 280 280 279 284 279 284 289 297 300 301 298 305 307 315 321 333 338 339 349 356
253 253 254 255 254 257 254 255 258 260 262 264 262 260 260 258 258 285 295 272 260 266 268 273 273 275 274 280 280 279 282 285 291 295 297 300 297 298 303 312 317 319 329 332 328
251 251 251 251 253 253 254 252 255 258 260 262 262 259 258 255 270 276 290 277 264 261 266 270 275 276 278 277 278 286 282 284 287 292 295 293 294 297 303 309 309 311 314 319 317
249 247 248 248 249 251 252 251 252 255 259 261 261 261 258 255 282 270 271 274 270 267 267 269 274 274 278 279 281 283 279 283 284 288 291 297 286 289 299 302 301 303 303 310 315
248 246 247 247 247 248 250 251 250 254 257 260 261 262 259 267 263 272 265 266 276 277 274 269 270 275 275 281 285 279 280 275 283 285 290 293 280 295 301 299 297 300 304 303 306
247 245 246 248 247 246 247 249 249 250 254 259 260 260 262 272 256 258 264 258 265 273 277 276 270 269 272 270 272 275 275 279 284 290 290 285 285 297 302 299 296 297 300 300 298
250 245 245 246 247 246 244 245 247 245 247 257 263 258 262 260 259 250 258 257 261 262 267 268 269 264 263 262 264 272 275 279 279 289 288 284 282 290 294 297 297 297 298 300 300
253 245 244 243 244 240 237 239 239 243 237 247 251 255 274 262 260 249 250 252 260 259 256 261 260 258 262 265 270 275 277 278 284 288 289 286 284 288 295 294 294 296 298 299 300
249 246 241 240 240 236 232 236 236 251 243 251 255 253 268 259 258 249 240 249 251 252 255 261 257 263 268 268 269 272 275 277 285 288 289 287 282 287 292 293 295 298 298 300 304
245 251 238 237 239 233 231 230 236 241 250 246 253 246 257 258 259 247 238 249 250 251 251 255 269 260 264 267 267 270 272 277 281 289 289 290 280 286 290 293 296 299 301 303 305
238 242 237 234 236 231 233 230 238 249 249 249 245 251 249 257 258 258 243 244 256 252 255 260 260 267 263 264 267 271 279 280 282 285 283 289 281 288 292 293 299 303 306 304 306
237 238 240 231 236 229 231 225 231 243 246 249 242 253 242 245 256 250 247 247 252 253 253 260 261 258 262 267 266 275 282 280 281 282 285 282 285 286 295 293 298 303 310 313 312
236 234 232 236 234 234 222 216 225 237 243 245 241 234 235 241 250 251 244 251 259 256 261 261 272 261 264 269 267 281 281 285 286 284 278 280 282 281 289 294 300 309 308 312 316
235 233 232 232 228 220 209 216 229 236 237 244 239 235 232 240 243 243 239 240 247 252 255 262 261 270 271 268 272 270 276 278 279 276 277 287 281 280 290 296 298 302 307 313 320
233 231 230 234 217 208 208 221 233 234 235 243 240 238 235 238 240 241 240 243 246 255 257 257 263 258 264 263 269 268 266 270 276 278 283 287 282 286 293 299 304 305 308 313 319
228 228 227 227 201 204 212 226 231 229 233 235 236 238 240 240 243 240 242 242 246 244 256 260 264 277 270 267 259 271 265 269 277 282 284 284 287 292 294 295 300 304 307 314 318
225 225 222 214 196 207 218 225 235 231 227 229 236 238 238 237 241 238 241 246 248 243 258 266 270 268 266 269 263 266 274 274 272 278 279 285 286 288 299 303 304 303 310 314 315
217 219 217 197 198 215 219 228 236 224 222 225 234 237 238 236 239 240 247 256 240 245 246 260 266 275 267 260 260 263 266 273 280 276 280 284 287 293 294 299 300 306 312 313 313
202 221 198 187 208 224 227 224 237 225 231 235 240 245 242 240 242 243 242 246 245 237 240 253 267 264 264 276 267 260 262 262 270 278 282 284 287 305 303 303 308 311 311 316 319
202 215 194 197 214 215 225 221 230 227 228 232 240 246 245 239 246 246 248 247 247 237 247 241 258 263 269 269 271 264 263 266 268 282 276 281 289 314 309 303 306 305 306 309 312
206 206 200 213 225 221 222 227 227 233 233 235 239 242 241 238 243 249 251 249 244 245 250 243 257 256 259 270 267 264 266 263 264 271 276 275 286 281 293 296 303 306 308 309 310
216 214 218 211 220 226 220 229 234 229 237 236 238 241 241 242 240 248 248 248 243 241 241 253 261 258 262 270 272 271 266 263 258 259 272 282 280 291 301 301 305 309 309 310 310
216 218 232 219 221 229 236 234 234 240 232 235 239 236 242 243 239 243 246 247 247 239 241 253 270 259 264 267 271 271 270 268 263 270 271 278 282 293 299 302 304 308 311 310 310
233 226 232 229 228 231 234 242 241 240 247 243 236 239 241 243 247 249 250 252 256 247 248 252 258 262 264 270 271 272 264 267 271 271 272 274 281 291 293 297 300 305 311 313 313